Tracking 19920 objects as of 13-Oct-2019
HD Live streaming from Space Station
objects crossing your sky now

IRIDIUM 33 DEB

Track IRIDIUM 33 DEB now!
10-day predictions


NORAD ID: 34540
Int'l Code: 1997-051JH
Perigee: 707.5 km
Apogee: 742.9 km
Inclination: 86.3 °
Period: 99.2 minutes
Semi major axis: 7096 km
RCS: 0.029 m2 (small)
Launch date: September 14, 1997
Source: United States (US)
Launch site: TYURATAM MISSILE AND SPACE COMPLEX (TTMTR)

Note: This is SATELLITE DEBRIS
aabbcc
Your satellite tracking list
Your tracking list is empty




NASA's NSSDC Master Catalog

Two Line Element Set (TLE):
1 34540U 97051JH  19286.31241383  .00000560  00000-0  13210-3 0  9990
2 34540  86.3254 226.2395 0024892 241.6033 247.1148 14.52324308562416
Source of the keplerian elements: AFSPC